LizzieSat-1

operational
NORAD ID: 59132 Int'l Des: 2024-043 Owner: SIDUS Country: US
LEOCIRCULARRETROGRADESSO

About LizzieSat-1

Description loading...

Live Position

Loading 3D Globe...

Upcoming Passes

Altitude History

Altitude vs Time

uPlot chart will show altitude changes over time

Two-Line Element Set

1 59132U 24043AL 26061.35431729 .00005572 00000-0 21590-3 0 9991
2 59132 97.5448 195.8616 0009616 259.6028 100.4126 15.26534276110635
Epoch: Mar 2, 2026 • Age: 24 hours

Current Status

Altitude 491.2 km
Velocity 7.62 km/s
Sub-Earth Point 11.56°N, 29.89°E
Launch Date Mar 4, 2024
Age 1.9 years
Type other

Technical Details

Classification Payload
Mass 100.00 kg
Dry Mass 100.00 kg
Total Mass 100.00 kg
Length 0.40 m
Diameter 0.80 m
Span 1.40 m
Shape Oct cyl+8 pan
Manufacturer SIDUS
Bus Type LizzieSat
Phase Status In Orbit
Owner/State SIDUS/US

Large Constellations

Loading constellations...